New Philadelphia, OH

7:56 AM EDT on August 19, 2017 (GMT -0400)
Clever

Weather History for KPHD - April, 2012

Change the Weather History Date:

Tuesday, April 10, 2012

  Actual Average Record
Temperature  
Mean Temperature 41 °F 49 °F  
Max Temperature 46 °F 62 °F 81 °F (2001)
Min Temperature 36 °F 37 °F 15 °F (1997)
Degree Days  
Heating Degree Days 24 16  
Month to date heating degree days 165 175  
Since 1 July heating degree days 2751 5161  
Cooling Degree Days 0 0  
Month to date cooling degree days 0 0  
Year to date cooling degree days 13 1  
Moisture  
Dew Point 24 °F    
Average Humidity 59    
Maximum Humidity 76    
Minimum Humidity 41    
Precipitation  
Precipitation 0.00 in 0.12 in 1.47 in (1983)
Month to date precipitation 0.06 1.12  
Year to date precipitation 6.97 9.12  
Sea Level Pressure  
Sea Level Pressure 29.92 in    
Wind  
Wind Speed 8 mph (WNW)    
Max Wind Speed 22 mph    
Max Gust Speed 32 mph    
Visibility 10 miles    
Events      
T = Trace of Precipitation, MM = Missing Value Source: NWS Daily Summary

Daily Weather History Graph

Daily Weather History Graph

Search for Another Location

Airport or City:

Trip Planner

Search our weather history database for the weather conditions in past years. The results will help you decide how hot, cold, wet, or windy it might be!

Date:

Astronomy

Apr. 10, 2012 Rise Set
Actual Time 6:54 AM EDT 8:00 PM EDT
Civil Twilight 6:26 AM EDT 8:28 PM EDT
Nautical Twilight 5:52 AM EDT 9:01 PM EDT
Astronomical Twilight 5:18 AM EDT 9:36 PM EDT
Moon No Moon Rise 9:36 AM EDT (4/10)
Length of Visible Light 14h 01m
Length of Day
13h 05m
Waning Gibbous, 79% of the Moon is Illuminated
Apr 10
Waning Gibbous
Apr 13
Last Quarter
Apr 21
New
Apr 29
First Quarter
May 5
Full

Hourly Weather History & Observations

Time (EDT) Temp. Windchill Dew Point Humidity Pressure Visibility Wind Dir Wind Speed Gust Speed Precip Events Conditions
12:53 AM 39.0 °F - 30.0 °F 70% 29.87 in 10.0 mi Calm Calm - N/A   Overcast
1:53 AM 39.0 °F - 30.0 °F 70% 29.87 in 10.0 mi Calm Calm - N/A   Overcast
2:53 AM 37.9 °F - 30.0 °F 73% 29.86 in 10.0 mi Calm Calm - N/A   Mostly Cloudy
3:53 AM 37.0 °F - 28.0 °F 70% 29.86 in 10.0 mi Calm Calm - N/A   Scattered Clouds
4:53 AM 42.1 °F 40.2 °F 25.0 °F 51% 29.85 in 10.0 mi NW 3.5 mph - N/A   Overcast
5:53 AM 42.1 °F 38.4 °F 23.0 °F 47% 29.85 in 10.0 mi NW 5.8 mph - N/A   Clear
6:53 AM 41.0 °F 36.4 °F 21.9 °F 47% 29.87 in 10.0 mi WNW 6.9 mph - N/A   Scattered Clouds
7:53 AM 42.1 °F 37.7 °F 21.9 °F 45% 29.88 in 10.0 mi WNW 6.9 mph - N/A   Partly Cloudy
8:53 AM 43.0 °F 36.8 °F 23.0 °F 45% 29.88 in 10.0 mi WNW 11.5 mph 20.7 mph N/A   Clear
9:53 AM 46.0 °F 39.9 °F 24.1 °F 42% 29.88 in 10.0 mi WNW 13.8 mph 18.4 mph N/A   Clear
10:53 AM 46.0 °F 40.2 °F 24.1 °F 42% 29.90 in 10.0 mi NW 12.7 mph 21.9 mph N/A   Scattered Clouds
11:53 AM 44.1 °F 37.7 °F 23.0 °F 43% 29.92 in 10.0 mi NW 12.7 mph 20.7 mph N/A   Overcast
12:53 PM 43.0 °F 36.4 °F 21.9 °F 43% 29.93 in 10.0 mi WNW 12.7 mph 19.6 mph N/A   Overcast
1:53 PM 42.1 °F 34.9 °F 21.9 °F 45% 29.93 in 10.0 mi West 13.8 mph 21.9 mph N/A   Overcast
2:53 PM 42.1 °F 36.1 °F 21.9 °F 45% 29.94 in 10.0 mi WNW 10.4 mph - N/A   Overcast
3:53 PM 41.0 °F 33.1 °F 23.0 °F 49% 29.96 in 10.0 mi NW 15.0 mph 23.0 mph N/A   Overcast
4:53 PM 41.0 °F 33.9 °F 23.0 °F 49% 29.96 in 10.0 mi WNW 12.7 mph - N/A   Overcast
5:53 PM 39.9 °F 33.4 °F 21.9 °F 49% 29.97 in 10.0 mi WNW 10.4 mph 18.4 mph N/A   Overcast
6:53 PM 39.9 °F 35.1 °F 21.9 °F 49% 29.98 in 10.0 mi West 6.9 mph - N/A   Overcast
7:53 PM 39.9 °F 35.8 °F 21.9 °F 49% 29.99 in 10.0 mi WNW 5.8 mph - N/A   Overcast
8:53 PM 39.0 °F 32.3 °F 23.0 °F 53% 30.01 in 10.0 mi WNW 10.4 mph - N/A   Overcast
9:53 PM 37.9 °F 32.7 °F 24.1 °F 57% 30.01 in 10.0 mi WNW 6.9 mph - N/A   Overcast
10:53 PM 37.0 °F 31.6 °F 24.1 °F 59% 30.01 in 10.0 mi WNW 6.9 mph - N/A   Overcast
11:53 PM 37.0 °F 29.8 °F 25.0 °F 62% 30.01 in 10.0 mi NW 10.4 mph 18.4 mph N/A   Overcast